SL-14 DEB, 45274

Orbit data source: Space-Track

SL-14 DEB, 45274 is space debris in LEO originally from a launch on Thu, 15 Aug 1991 UTC launched from the Plesetsk Missile And Space Complex (PKMTR). Debris objects in space refer to the collection of defunct objects orbiting the Earth. Examples of debris include non-operational satellites, rocket bodies, and fragments generated from explosions, collisions, or faulty payload assembly.

Loading next visibility...
SL-14 DEB details
Identifier
45274, 1991-056L
Orbit
LEO
Last TLE update17 hours ago
Origin
Flag of CISRosgidromet (CIS)
ManufacturerUnknown
MissionSpacecraft
Bus & MotorUnknown
MassUnknown
Launch date (UTC)
1991-08-15 (33 years ago)
Launch vehicleUnknown
Launch site
Plesetsk Missile And Space Complex (PKMTR)
Object type
Payload
Rocket body
Debris
Shape & HBRUnknown
Radar Cross SectionMedium (>0.1 m² and <1 m²)

Expand to show TLE details & history

TLE from 17 hours ago
0 SL-14 DEB
1 45274U 91056L   24360.71178729  .00000393  00000-0  98139-3 0  9998
2 45274  82.5376 156.7962 0026953  56.2950 304.0737 13.17419594233818
Epoch: 2024-12-25T17:04Z
Definitive object data (Epoch: 2024-12-25T17:04:58.421Z)
Latitude0.00001°
Longitude165.85117°
Altitude1,186 km
Speed7.266 km/s
True Right ascension10h 27m 11s
True Declination0° 00' 00"
Sunlit
Object was in daylight at TLE epoch
Visualization TLE readout
Latitude33.86832°
Longitude-19.67284°
Altitude1,199.387 km
Speed7.257 km/s
Apparent Right ascension21h 51m 42s
Apparent Declination0° 40' 35"
Sunlit
Object is in daylight
Visualization observer readout
Local Sidereal Time09:34:29
Azimuth353.404° N
Elevation-49.217°
Doppler factor1
Orbital elements
Apogee altitude1,212.24 km
Perigee altitude1,171.434 km
Semi-major axis7,569.974 km
Eccentricity0.0026953
Inclination82.5376°
RAAN156.7962°
Arg. of periapsis56.295°
True anomaly303.81738°
Mean anomaly304.0737°
Eccentric anomaly303.94559°
Mean motion3.29535 °/min
BSTAR0.00098139
Orbital period109.24 mins
Loading maneuver chart data...
Loading historical data...
Loading historical data...
Loading historical data...
Loading historical data...
Loading historical data...
Loading historical data...
Loading historical data...

SL-14 DEB Visibility forecast

Observer location: undefined°, undefined

Span
Click to sort rows by Start time (UTC) header in descending order
Start Az.
Max El. time (UTC)
Max El. Az.
Max El.
End time (UTC)
End Az.
13 mins2024-12-26 11:24:20.376Z186.854° SSW2024-12-26 11:30:20.376Z201.771° SSW44.617°2024-12-26 11:37:20.376Z7.007° NNE
6 mins2024-12-26 13:19:20.376Z272.53° WNW2024-12-26 13:22:20.376Z299.426° NW14.226°2024-12-26 13:25:20.376Z325.324° NNW
9 mins2024-12-26 21:02:20.376Z28.452° NE2024-12-26 21:06:20.376Z68.18° E20.97°2024-12-26 21:11:20.376Z114.74° SE
12 mins2024-12-26 22:51:20.376Z344.116° N2024-12-26 22:57:20.376Z256.256° W42.094°2024-12-26 23:03:20.376Z188.921° SSW
|